Погода в Исилькуле

Погода в Исилькуле : погода сейчас, прогноз погоды и архив. Всё, что Вы хотите узнать о погоде в Исилькуле!

Хотите узнать прогноз погоды в Исилькуле? Тогда Вам сюда: Погода в Исилькуле

Поиск расширенной информации на нашем сайте:

Другие новости

Новости СМИ2

Главная страница сайта

Новости сайта

03.07.2017

Напоминаем, что на нашем специализированном сайте Метеоцентр.Азия вы можете получить высокодетализированные автоматические прогнозы погоды по пунктам России, СНГ и мира в авиационном формате (включающие направление и скорость ветра, видимость, явления погоды, количество и форму облачности, нижнюю и верхнюю границу облачности).

Рекомендуем: Деньги в долг срочно дам деньги в долг.

Погода в Исилькуле - сегодня

Время (UTC), дата Ветер
(°,м/с) 
Видим.   Явления Облачность Т
(°С)
Тd
(°С)
f(%) Тe
(°С)
Pmin
(гПа)
dP
(гПа)
Po
(мм)
O2
(г/м3)
Тmin Tmax R s Состояние
почвы
03 19.11.17 240 (ЮЗ) 20000 м    8/4 1000 м средняя 
[Sc|Ac trans]
-4 -5.3 91 -6  1025  0.8  757  310  -5.4      мокрый или
старый снег
50-90% 
06 19.11.17 240 (ЮЗ) 20000 м  {снег}  10/0 средняя 
[Ac As]
-1.3 -4.4 79 -4  1025.5  0.6  757  307           
09 19.11.17 280 (З) 20000 м    9/8 600 м средняя 
[Sc|Ac trans]
-0.2 -3.2 80 -3  1025.9  0.5  758  306           
12 19.11.17 290 (З) 10 км  {снег}  10/10 600 м 
[Sc]
-0.2 -2.4 85 -2  1027.8  1.8  759  306           
15 19.11.17 270 (З) 10 км    8/0 средняя 
[Ac trans]
-0.4 -2.2 88 -1  1029.6  1.4  760  307    -0.2  0.0     
18 19.11.17 290 (З) 10 км  {снег}  10/10 600 м 
[Sc]
-0.2 -2.4 85 -2  1027.8  1.8  759  306           
21 19.11.17 260 (З) 10 км    9/9 600 м 
[Sc]
-0.8 -2.4 89 -3  1030.6  0.9  761  308           
00 20.11.17 260 (З) 10 км    10/10 600 м 
[Sc]
-0.5 -3.2 82 -2  1031.5  0.9  762  308           
03 20.11.17 240 (ЮЗ) 20000 м    10/4 600 м кучево-дожд., средняя 
[Cb calv|As op]
-0.7 -2.8 86 -2  1031.4  0.1  762  308  -2      мокрый или
старый снег
50-90% 
06 20.11.17 240 (ЮЗ) 20000 м  {ливн. осадки}  10/4 600 м кучево-дожд., средняя 
[Cb calv|Ac trans]
-0.4 -2.6 85 -3  1031.5  0.1  762  308           
09 20.11.17 260 (З) 20000 м    8/3 1000 м средняя 
[Sc|Ac trans]
+0.7 -2.9 77 -2  1030.9  -0.6  761  306           
12 20.11.17 250 (З) 3{10}  10 км    10/10 1000 м 
[Sc]
+0.6 -2.7 79 -1  1031.1  0.2  761  306           
15 20.11.17 250 (З) 10 км    9/9 1000 м 
[Sc]
-0.4 -3 83 -3  1031.2  0.1  761  308    +0.8  0.0     
18 20.11.17 250 (З) 10 км    10/10 1000 м 
[Sc]
-0.6 -2.7 86 -2  1030.9  -0.3  761  308           
21 20.11.17 240 (ЮЗ) 10 км    10/0 средняя 
[As op]
-1.9 -3.4 89 -4  1030.9  0.1  761  309           
00 21.11.17 240 (ЮЗ) 10 км    10/0 средняя 
[As op]
-0.7 -2.7 86 -3  1030.9  0.1  761  308           
03 21.11.17 250 (З) 20000 м    6/0 средняя, верхняя 
[Ac trans|Cs]
-2.5 -4.2 88 -5  1031.3  0.3  761  310  -2.7      <0.5  мокрый или
старый снег
50-90% 
06 21.11.17 240 (ЮЗ) 20000 м    8/0 средняя 
[Ac trans]
-0.6 -3.7 80 -3  1031.3  0.1  761  308           
09 21.11.17 250 (З) 20000 м    6/0 средняя 
[Ac trans]
+2 -4.1 64 1031  -0.1  761  305           
12 21.11.17 230 (ЮЗ) 10 км    9/0 средняя 
[Ac trans]
+1.5 -2.8 73 1031.4  0.3  762  306           
15 21.11.17 230 (ЮЗ) 10 км    3/0 средняя 
[Ac trans]
-0.9 -4.8 75 -3  1031.5  762  308    +2.3       
18 21.11.17 220 (ЮЗ) 10 км    ясно 
-4.2 -6.3 85 -4  1031.4  -0.3  761  312           
21 21.11.17 210 (ЮЗ) 10 км    ясно 
-5.8 -8.5 81 -7  1031.4  0.1  761  314           
00 22.11.17 200 (Ю) 10 км    9/0 средняя 
[Ac trans]
-4.8 -7.3 83 -6  1030.7  -0.6  761  313           
03 22.11.17 210 (ЮЗ) 20000 м    6/0 верхняя 
[Ci fib]
-4 -7.2 78 -5  1030.2  -0.4  761  312  -6      <0.5  мокрый или
старый снег
50-90% 
Время (UTC), дата Ветер
(°,м/с) 
Видим.   Явления Облачность Т
(°С)
Тd
(°С)
f(%) Тe
(°С)
Pmin
(гПа)
dP
(гПа)
Po
(мм)
O2
(г/м3)
Тmin Tmax R s Состояние
почвы

Для получения пояснительной информации подведите курсор к названию столбца.

ПОГОДА в Исилькуле - архив

Всё, что Вы хотите узнать о погоде в Исилькуле - удобно и подробно!

Выберите нужную дату (начиная с 1 января 2015* года) и нажмите кнопку "Найти".
Будут отображены архивные сводки погоды по пункту Исилькуль, начиная с указанной даты.


Отображать данные в формате CSV (для использования в таблицах Excel)


Внимание! Наш архив погоды предназначен исключительно для личного некоммерческого использования в познавательных целях. Если Вам необходимы официальные справки о состоянии погоды (для производственных, юридических, коммерческих и т.п. целей), обращайтесь в органы Росгидромета.

*Примечание: данная дата относится к архиву по метеостанциям СССР (Россия, СНГ, Балтия).
Архив по метеостанциям Зарубежной Европы и Азии (кроме Китая) хранится 10 дней, по другим регионам земного шара (Китай, Африка, Америка, Австралия, Океания) - 1 день.

Исилькуль - район местоположения метеостанции


Название, широта, долгота, высота метеостанции:
Исилькуль 54.9°ш. 71.2°д. 125 м над ур. моря [Российская Федерация]

Дополнительная информация

В oтличие oт бoльшинства пoгoдных сайтoв мы публикуем пoдрoбную метеoинфoрмацию в детальнoм прoфессиoнальнoм фoрмате.

Характеристики температуры и влажнoсти вoздуха измеряются на высoте 2 м в тени вдали oт зданий и деревьев.
Скoрoсть ветра измеряется на высoте 10 м (на урoвне рoста челoвека скoрoсть ветра ниже в 1.5-2 раза). Если метеoстанция нахoдится в гoрoде или в лесу, тo скoрoсть ветра занижена на 2-4 м/с пo сравнению с oткрытым местoм. Скoрoсть ветра над акватoриями крупных рек и oзёр, а также на вершинах хoлмoв на 2-5 м/с выше, чем в oбычных услoвиях.
Атмoсфернoе давление в разных тoчках местнoсти мoжет значительнo oтличаться oт давления на метеoстанции, в зависимoсти oт услoвий рельефа (при пoдъёме на 10 м давление пoнижается примернo на 1 мм рт.ст.).